weather.gov     
National Weather Service

Terminal Aerodrome Forecast
NWS Homepage
This page is being discontinued on March 12, 2014.
The same data is available at this site. Please update your bookmarks.
Thank you, and we apologize for the inconvenience.
Please send an email to SR-SRH.Webmaster@noaa.gov with any concerns.


Current Version
Previous Version:    01  02  03  04  05  06  07  08  09  10  11  12  13  14  15  16  17  18  19  20  21  22  23  24  25  
[Printable]
691
FTUS45 KBYZ 180520
TAFMLS
TAF
KMLS 180520Z 1806/1906 15012G20KT P6SM VCTS SCT080CB BKN120
     FM180700 16012KT P6SM SCT120
     FM181500 20010KT P6SM SCT150
     FM190100 26011KT P6SM VCTS SCT100CB BKN150=


691
FTUS45 KBYZ 180520
TAFMLS
TAF
KMLS 180520Z 1806/1906 15012G20KT P6SM VCTS SCT080CB BKN120
     FM180700 16012KT P6SM SCT120
     FM181500 20010KT P6SM SCT150
     FM190100 26011KT P6SM VCTS SCT100CB BKN150=




U.S. Dept. of Commerce
NOAA National Weather Service
1325 East West Highway
Silver Spring, MD 20910
E-mail: w-nws.webmaster@noaa.gov
Page last modified: May 16, 2007
NATIONAL WEATHER SERVICE: for Safety, for Work, for Fun - FOR LIFE